QPF
0.05 0.07 0.08 0.08 0.06 0.06 0.06 0.08 0.10 0.10 0.06 0.05 0.04 0.04 0.05 0.06 0.07 0.05 0.06 0.05 0.05 0.05 0.05 0.04 0.04 0.05 0.06 0.06 0.09 0.07 0.05 0.04 0.04 0.03 0.01 0.02 0.04 0.05
0.05 0.05 0.06 0.08 0.07 0.05 0.05 0.05 0.06 0.07 0.06 0.04 0.05 0.05 0.04 0.04 0.06 0.07 0.06 0.04 0.03 0.02 0.03 0.03 0.03 0.05 0.08 0.08 0.09 0.07 0.05 0.04 0.03 0.02 0.01 0.01 0.02 0.04
0.05 0.04 0.05 0.05 0.04 0.04 0.04 0.05 0.04 0.06 0.06 0.04 0.06 0.05 0.04 0.05 0.05 0.05 0.05 0.04 0.03 0.03 0.02 0.02 0.02 0.03 0.05 0.05 0.05 0.04 0.04 0.03 0.02 0.02 0.01 0.01 0.02 0.02
0.04 0.05 0.04 0.04 0.05 0.05 0.05 0.07 0.07 0.07 0.06 0.06 0.07 0.06 0.06 0.06 0.06 0.05 0.04 0.05 0.04 0.02 0.02 0.03 0.02 0.02 0.02 0.02 0.02 0.02 0.02 0.02 0.02 0.02 0.02 0.01 0.01 0.01
0.04 0.04 0.04 0.06 0.04 0.04 0.04 0.06 0.08 0.07 0.07 0.07 0.06 0.07 0.05 0.05 0.07 0.04 0.04 0.04 0.04 0.04 0.03 0.02 0.02 0.02 0.02 0.02 0.01 0.01 0.02 0.02 0.02 0.01 0.01 0.01 0.01 0.01
0.04 0.05 0.05 0.04 0.04 0.04 0.05 0.06 0.06 0.06 0.06 0.06 0.06 0.06 0.05 0.05 0.06 0.05 0.04 0.04 0.03 0.03 0.04 0.03 0.02 0.02 0.02 0.02 0.02 0.01 0.01 0.01 0.01 0.01 0.01 0.00 0.00 0.00
0.05 0.05 0.05 0.05 0.04 0.04 0.04 0.04 0.05 0.05 0.05 0.05 0.05 0.05 0.05 0.05 0.05 0.05 0.04 0.03 0.03 0.04 0.05 0.04 0.03 0.03 0.03 0.03 0.03 0.03 0.02 0.02 0.01 0.01 0.01 0.01 0.00 0.00
0.05 0.06 0.06 0.06 0.05 0.03 0.02 0.02 0.02 0.02 0.03 0.04 0.04 0.04 0.04 0.05 0.05 0.04 0.04 0.04 0.04 0.05 0.06 0.04 0.04 0.04 0.05 0.04 0.05 0.05 0.03 0.02 0.02 0.02 0.01 0.01 0.01 0.01
0.04 0.04 0.04 0.04 0.04 0.03 0.03 0.03 0.02 0.01 0.02 0.03 0.04 0.04 0.05 0.06 0.06 0.04 0.04 0.04 0.05 0.06 0.07 0.05 0.04 0.04 0.04 0.04 0.05 0.05 0.05 0.03 0.02 0.02 0.02 0.02 0.01 0.01
0.04 0.04 0.04 0.04 0.03 0.04 0.04 0.04 0.03 0.03 0.04 0.04 0.02 0.03 0.05 0.06 0.06 0.05 0.05 0.05 0.06 0.07 0.07 0.05 0.05 0.06 0.05 0.05 0.06 0.04 0.03 0.02 0.02 0.02 0.02 0.02 0.02 0.02
0.05 0.04 0.05 0.05 0.04 0.06 0.05 0.05 0.08 0.07 0.06 0.05 0.04 0.03 0.03 0.03 0.03 0.04 0.04 0.05 0.06 0.08 0.08 0.06 0.07 0.09 0.05 0.05 0.05 0.05 0.03 0.02 0.02 0.02 0.02 0.03 0.03 0.03
0.08 0.08 0.10 0.09 0.08 0.08 0.08 0.09 0.09 0.06 0.05 0.04 0.04 0.03 0.02 0.02 0.02 0.02 0.04 0.05 0.06 0.07 0.07 0.07 0.08 0.11 0.08 0.06 0.06 0.05 0.04 0.05 0.04 0.03 0.02 0.03 0.03 0.03
0.07 0.06 0.06 0.06 0.07 0.09 0.09 0.08 0.07 0.06 0.05 0.05 0.04 0.04 0.04 0.04 0.03 0.03 0.05 0.05 0.06 0.05 0.05 0.06 0.09 0.10 0.08 0.06 0.07 0.06 0.05 0.06 0.06 0.04 0.03 0.03 0.04 0.04
0.06 0.06 0.06 0.06 0.05 0.04 0.04 0.04 0.04 0.03 0.03 0.03 0.04 0.04 0.04 0.04 0.04 0.04 0.05 0.05 0.06 0.06 0.07 0.07 0.08 0.09 0.07 0.07 0.08 0.08 0.07 0.06 0.06 0.04 0.04 0.05 0.04 0.05
0.04 0.04 0.04 0.04 0.03 0.02 0.02 0.02 0.02 0.02 0.03 0.03 0.03 0.02 0.02 0.03 0.03 0.04 0.04 0.05 0.05 0.04 0.05 0.06 0.07 0.09 0.08 0.07 0.06 0.07 0.06 0.05 0.04 0.05 0.07 0.07 0.07 0.07
0.01 0.01 0.01 0.01 0.01 0.01 0.01 0.01 0.02 0.02 0.02 0.02 0.02 0.02 0.03 0.03 0.03 0.03 0.03 0.03 0.04 0.04 0.04 0.04 0.06 0.07 0.06 0.06 0.06 0.08 0.07 0.06 0.06 0.08 0.07 0.08 0.08 0.09
0.01 0.01 0.02 0.02 0.01 0.01 0.02 0.02 0.02 0.03 0.02 0.01 0.01 0.02 0.02 0.02 0.02 0.02 0.03 0.03 0.03 0.03 0.04 0.05 0.07 0.07 0.06 0.06 0.07 0.07 0.07 0.07 0.08 0.09 0.09 0.09 0.08 0.08
0.01 0.01 0.02 0.03 0.02 0.02 0.02 0.02 0.02 0.03 0.03 0.02 0.02 0.02 0.02 0.02 0.02 0.02 0.02 0.03 0.03 0.03 0.03 0.04 0.07 0.08 0.07 0.06 0.06 0.06 0.06 0.07 0.07 0.07 0.07 0.08 0.08 0.06
0.01 0.01 0.02 0.02 0.02 0.02 0.02 0.02 0.02 0.03 0.03 0.04 0.04 0.03 0.03 0.03 0.03 0.02 0.02 0.02 0.02 0.03 0.03 0.03 0.04 0.05 0.05 0.05 0.04 0.04 0.06 0.06 0.06 0.06 0.06 0.06 0.06 0.06
0.00 0.00 0.01 0.01 0.01 0.02 0.02 0.02 0.02 0.03 0.04 0.04 0.05 0.05 0.04 0.04 0.04 0.03 0.03 0.02 0.02 0.04 0.05 0.04 0.04 0.04 0.05 0.05 0.04 0.03 0.04 0.05 0.06 0.06 0.05 0.05 0.04 0.03
0.00 0.01 0.01 0.02 0.01 0.01 0.02 0.02 0.03 0.03 0.04 0.03 0.03 0.04 0.04 0.04 0.03 0.03 0.03 0.04 0.04 0.05 0.06 0.06 0.05 0.04 0.04 0.05 0.05 0.04 0.04 0.05 0.05 0.06 0.06 0.05 0.05 0.05
0.01 0.01 0.01 0.01 0.01 0.02 0.02 0.02 0.03 0.03 0.04 0.03 0.02 0.03 0.03 0.02 0.02 0.03 0.03 0.04 0.04 0.05 0.06 0.07 0.06 0.05 0.05 0.05 0.06 0.06 0.05 0.07 0.06 0.06 0.05 0.05 0.04 0.04
0.02 0.02 0.02 0.02 0.02 0.02 0.03 0.03 0.03 0.04 0.04 0.03 0.02 0.02 0.02 0.02 0.02 0.03 0.04 0.04 0.05 0.05 0.05 0.05 0.05 0.05 0.05 0.05 0.06 0.05 0.05 0.06 0.05 0.05 0.05 0.04 0.04 0.03
MSLP
1013.82 1013.95 1014.07 1014.17 1014.25 1014.29 1014.29 1014.24 1014.16 1014.06 1013.96 1013.88 1013.86 1013.92 1014.07 1014.31 1014.64 1015.05 1015.51 1016.01 1016.51 1016.99 1017.43 1017.83 1018.17 1018.48 1018.75 1019.01 1019.27 1019.54 1019.82 1020.12 1020.42 1020.72 1021.00 1021.27 1021.52 1021.75
1013.24 1013.31 1013.37 1013.43 1013.47 1013.49 1013.49 1013.46 1013.41 1013.34 1013.27 1013.23 1013.23 1013.29 1013.43 1013.66 1013.98 1014.38 1014.84 1015.33 1015.85 1016.35 1016.82 1017.25 1017.63 1017.98 1018.30 1018.60 1018.90 1019.20 1019.52 1019.85 1020.18 1020.51 1020.82 1021.11 1021.38 1021.63
1012.63 1012.63 1012.62 1012.62 1012.63 1012.64 1012.65 1012.65 1012.64 1012.63 1012.61 1012.62 1012.65 1012.73 1012.88 1013.10 1013.40 1013.78 1014.22 1014.70 1015.21 1015.71 1016.20 1016.65 1017.07 1017.45 1017.81 1018.16 1018.50 1018.85 1019.21 1019.58 1019.95 1020.32 1020.66 1020.97 1021.26 1021.52
1012.01 1011.93 1011.86 1011.81 1011.78 1011.79 1011.82 1011.86 1011.90 1011.95 1012.00 1012.06 1012.13 1012.24 1012.40 1012.61 1012.89 1013.24 1013.65 1014.10 1014.59 1015.08 1015.56 1016.03 1016.47 1016.88 1017.28 1017.67 1018.06 1018.45 1018.86 1019.27 1019.68 1020.08 1020.46 1020.80 1021.11 1021.39
1011.38 1011.24 1011.12 1011.03 1010.99 1011.00 1011.04 1011.12 1011.22 1011.33 1011.43 1011.54 1011.65 1011.78 1011.94 1012.14 1012.39 1012.70 1013.07 1013.48 1013.93 1014.40 1014.88 1015.35 1015.80 1016.24 1016.66 1017.08 1017.51 1017.94 1018.39 1018.84 1019.30 1019.74 1020.16 1020.54 1020.89 1021.20
1010.75 1010.58 1010.43 1010.33 1010.28 1010.29 1010.36 1010.47 1010.61 1010.75 1010.90 1011.03 1011.16 1011.29 1011.43 1011.60 1011.82 1012.08 1012.40 1012.77 1013.18 1013.62 1014.08 1014.54 1015.00 1015.45 1015.89 1016.34 1016.80 1017.27 1017.75 1018.25 1018.75 1019.25 1019.72 1020.16 1020.57 1020.93
1010.16 1009.98 1009.83 1009.72 1009.67 1009.70 1009.78 1009.90 1010.05 1010.21 1010.36 1010.49 1010.61 1010.71 1010.82 1010.94 1011.10 1011.31 1011.58 1011.89 1012.26 1012.67 1013.11 1013.56 1014.01 1014.47 1014.94 1015.41 1015.89 1016.40 1016.92 1017.46 1018.02 1018.58 1019.12 1019.64 1020.12 1020.55
1009.62 1009.46 1009.32 1009.23 1009.19 1009.22 1009.30 1009.42 1009.55 1009.68 1009.80 1009.89 1009.96 1010.01 1010.05 1010.12 1010.21 1010.36 1010.56 1010.83 1011.16 1011.53 1011.94 1012.38 1012.84 1013.31 1013.79 1014.28 1014.79 1015.33 1015.90 1016.49 1017.11 1017.74 1018.36 1018.97 1019.55 1020.08
1009.19 1009.06 1008.95 1008.88 1008.85 1008.87 1008.92 1009.00 1009.08 1009.15 1009.20 1009.22 1009.21 1009.18 1009.15 1009.14 1009.16 1009.24 1009.38 1009.59 1009.88 1010.22 1010.62 1011.05 1011.51 1011.98 1012.48 1013.00 1013.54 1014.11 1014.73 1015.38 1016.06 1016.77 1017.49 1018.20 1018.89 1019.53
1008.92 1008.82 1008.73 1008.67 1008.63 1008.63 1008.63 1008.65 1008.65 1008.63 1008.58 1008.50 1008.39 1008.27 1008.15 1008.05 1008.00 1008.01 1008.09 1008.26 1008.51 1008.83 1009.20 1009.63 1010.09 1010.58 1011.10 1011.64 1012.22 1012.83 1013.49 1014.20 1014.96 1015.75 1016.56 1017.38 1018.17 1018.93
1008.83 1008.75 1008.68 1008.60 1008.54 1008.48 1008.42 1008.35 1008.25 1008.13 1007.97 1007.78 1007.57 1007.35 1007.13 1006.96 1006.83 1006.78 1006.81 1006.94 1007.15 1007.44 1007.81 1008.23 1008.69 1009.19 1009.73 1010.30 1010.91 1011.57 1012.28 1013.05 1013.87 1014.73 1015.63 1016.54 1017.43 1018.29
1008.91 1008.84 1008.75 1008.65 1008.53 1008.41 1008.26 1008.09 1007.89 1007.66 1007.39 1007.10 1006.79 1006.48 1006.20 1005.95 1005.77 1005.66 1005.65 1005.73 1005.91 1006.18 1006.52 1006.93 1007.40 1007.91 1008.47 1009.06 1009.70 1010.40 1011.15 1011.97 1012.84 1013.77 1014.73 1015.71 1016.68 1017.61
1009.13 1009.03 1008.90 1008.75 1008.57 1008.36 1008.12 1007.85 1007.56 1007.22 1006.87 1006.49 1006.11 1005.74 1005.40 1005.10 1004.87 1004.72 1004.67 1004.71 1004.86 1005.10 1005.42 1005.82 1006.28 1006.79 1007.35 1007.97 1008.63 1009.35 1010.14 1010.99 1011.90 1012.87 1013.87 1014.90 1015.91 1016.88
1009.40 1009.25 1009.06 1008.84 1008.58 1008.29 1007.97 1007.61 1007.23 1006.83 1006.41 1005.98 1005.55 1005.15 1004.77 1004.44 1004.18 1004.00 1003.91 1003.91 1004.02 1004.22 1004.51 1004.89 1005.33 1005.83 1006.39 1007.01 1007.69 1008.43 1009.23 1010.10 1011.03 1012.02 1013.04 1014.07 1015.10 1016.08
1009.62 1009.41 1009.15 1008.85 1008.52 1008.15 1007.76 1007.35 1006.91 1006.47 1006.01 1005.56 1005.12 1004.69 1004.31 1003.97 1003.68 1003.48 1003.35 1003.32 1003.38 1003.53 1003.78 1004.11 1004.53 1005.01 1005.56 1006.17 1006.85 1007.59 1008.40 1009.27 1010.20 1011.18 1012.20 1013.22 1014.24 1015.21
1009.70 1009.42 1009.10 1008.74 1008.34 1007.92 1007.49 1007.04 1006.58 1006.12 1005.66 1005.21 1004.78 1004.36 1003.98 1003.63 1003.33 1003.10 1002.94 1002.86 1002.87 1002.98 1003.17 1003.46 1003.82 1004.27 1004.80 1005.39 1006.06 1006.79 1007.60 1008.46 1009.38 1010.34 1011.34 1012.34 1013.32 1014.26
1009.58 1009.25 1008.87 1008.47 1008.04 1007.59 1007.14 1006.69 1006.24 1005.79 1005.35 1004.93 1004.51 1004.11 1003.73 1003.38 1003.07 1002.81 1002.61 1002.48 1002.44 1002.49 1002.62 1002.86 1003.18 1003.59 1004.08 1004.65 1005.30 1006.02 1006.80 1007.65 1008.55 1009.49 1010.45 1011.42 1012.37 1013.28
1009.24 1008.88 1008.48 1008.06 1007.63 1007.19 1006.75 1006.32 1005.90 1005.48 1005.08 1004.68 1004.29 1003.90 1003.53 1003.17 1002.84 1002.55 1002.31 1002.13 1002.04 1002.03 1002.11 1002.29 1002.57 1002.94 1003.40 1003.94 1004.56 1005.26 1006.03 1006.85 1007.73 1008.64 1009.58 1010.52 1011.43 1012.31
1008.74 1008.37 1007.98 1007.58 1007.16 1006.76 1006.36 1005.97 1005.59 1005.22 1004.85 1004.47 1004.10 1003.72 1003.34 1002.97 1002.62 1002.29 1002.01 1001.79 1001.64 1001.59 1001.63 1001.76 1002.00 1002.34 1002.77 1003.28 1003.88 1004.56 1005.30 1006.10 1006.96 1007.84 1008.76 1009.67 1010.57 1011.43
1008.16 1007.81 1007.45 1007.08 1006.71 1006.36 1006.01 1005.67 1005.34 1005.01 1004.67 1004.32 1003.95 1003.57 1003.17 1002.77 1002.39 1002.03 1001.71 1001.45 1001.28 1001.19 1001.20 1001.31 1001.52 1001.83 1002.24 1002.74 1003.32 1003.97 1004.69 1005.47 1006.29 1007.16 1008.05 1008.94 1009.82 1010.67
1007.59 1007.27 1006.95 1006.64 1006.33 1006.04 1005.75 1005.47 1005.18 1004.88 1004.56 1004.21 1003.83 1003.43 1003.01 1002.58 1002.17 1001.78 1001.43 1001.15 1000.96 1000.86 1000.86 1000.96 1001.17 1001.47 1001.87 1002.35 1002.91 1003.54 1004.23 1004.99 1005.79 1006.62 1007.49 1008.36 1009.23 1010.08
1007.11 1006.83 1006.56 1006.30 1006.05 1005.82 1005.59 1005.35 1005.10 1004.82 1004.51 1004.15 1003.76 1003.33 1002.87 1002.41 1001.97 1001.56 1001.20 1000.91 1000.72 1000.63 1000.64 1000.76 1000.98 1001.29 1001.68 1002.16 1002.70 1003.31 1003.98 1004.70 1005.47 1006.27 1007.11 1007.96 1008.81 1009.65
1006.78 1006.52 1006.29 1006.08 1005.89 1005.71 1005.53 1005.33 1005.10 1004.83 1004.51 1004.13 1003.71 1003.24 1002.76 1002.27 1001.80 1001.37 1001.02 1000.74 1000.57 1000.51 1000.55 1000.70 1000.94 1001.28 1001.68 1002.16 1002.69 1003.28 1003.92 1004.60 1005.33 1006.10 1006.90 1007.71 1008.54 1009.36
Thickness
5758 5756 5754 5754 5753 5752 5749 5743 5734 5725 5723 5727 5728 5730 5729 5727 5725 5723 5722 5720 5718 5716 5714 5713 5711 5709 5708 5707 5706 5704 5703 5701 5700 5699 5698 5697 5697 5697
5754 5752 5750 5750 5749 5748 5745 5742 5737 5729 5722 5725 5725 5727 5726 5724 5721 5719 5717 5715 5714 5712 5710 5708 5706 5704 5702 5701 5700 5698 5697 5696 5695 5694 5693 5692 5692 5693
5750 5748 5745 5745 5743 5742 5740 5737 5733 5729 5721 5722 5723 5723 5721 5719 5717 5715 5713 5712 5710 5708 5706 5703 5701 5699 5697 5696 5695 5693 5692 5691 5690 5689 5688 5687 5687 5687
5744 5742 5740 5740 5737 5735 5733 5731 5728 5726 5721 5715 5716 5716 5715 5715 5713 5711 5710 5709 5707 5705 5703 5700 5698 5695 5694 5692 5691 5689 5688 5686 5685 5684 5683 5682 5682 5682
5741 5738 5736 5733 5731 5729 5727 5725 5723 5723 5719 5715 5712 5712 5711 5711 5708 5706 5706 5705 5704 5702 5699 5697 5694 5692 5690 5689 5687 5686 5684 5683 5681 5679 5678 5677 5676 5676
5738 5735 5732 5730 5727 5724 5722 5719 5718 5715 5713 5710 5707 5706 5705 5705 5703 5700 5698 5699 5698 5699 5697 5694 5691 5689 5687 5685 5683 5682 5680 5678 5676 5675 5673 5672 5671 5671
5733 5731 5728 5726 5723 5720 5718 5715 5712 5709 5706 5703 5701 5700 5698 5696 5695 5695 5693 5693 5693 5694 5691 5691 5688 5686 5684 5682 5679 5678 5676 5674 5672 5671 5669 5668 5666 5666
5727 5725 5723 5720 5718 5715 5713 5711 5709 5705 5701 5697 5695 5693 5692 5691 5690 5689 5687 5685 5684 5689 5687 5686 5686 5683 5681 5679 5677 5675 5674 5672 5670 5667 5665 5664 5662 5661
5722 5720 5719 5718 5714 5710 5708 5706 5704 5702 5699 5695 5691 5689 5688 5688 5685 5683 5682 5681 5680 5684 5682 5680 5682 5679 5679 5678 5676 5673 5671 5669 5667 5665 5662 5661 5659 5657
5718 5715 5712 5709 5708 5703 5701 5699 5697 5696 5694 5692 5690 5688 5687 5685 5683 5681 5680 5679 5680 5680 5679 5674 5676 5676 5676 5674 5673 5670 5668 5666 5664 5662 5659 5658 5656 5654
5712 5710 5707 5703 5699 5696 5693 5691 5689 5689 5689 5687 5686 5685 5683 5680 5679 5676 5674 5671 5670 5673 5675 5671 5671 5670 5670 5669 5668 5667 5665 5663 5660 5658 5656 5654 5652 5650
5705 5702 5699 5695 5691 5688 5685 5683 5680 5681 5681 5680 5679 5679 5677 5676 5674 5671 5669 5666 5665 5666 5669 5667 5666 5664 5662 5665 5664 5662 5660 5659 5657 5655 5653 5651 5648 5645
5696 5694 5691 5687 5683 5680 5678 5676 5674 5673 5673 5672 5673 5673 5672 5671 5669 5668 5666 5664 5661 5660 5663 5662 5660 5659 5657 5657 5658 5658 5657 5655 5653 5651 5649 5648 5646 5643
5688 5686 5683 5679 5676 5674 5672 5670 5668 5666 5666 5666 5666 5665 5665 5664 5664 5663 5663 5662 5661 5659 5659 5658 5656 5654 5652 5650 5650 5652 5652 5651 5650 5648 5647 5645 5642 5640
5680 5677 5674 5672 5670 5668 5666 5664 5662 5661 5660 5659 5659 5659 5660 5659 5659 5658 5658 5657 5656 5655 5655 5654 5653 5651 5649 5647 5646 5647 5646 5646 5646 5645 5643 5642 5639 5637
5672 5668 5666 5665 5664 5662 5661 5659 5657 5657 5656 5654 5654 5654 5655 5654 5653 5652 5650 5649 5647 5647 5649 5649 5648 5646 5644 5644 5642 5641 5642 5641 5641 5641 5639 5638 5637 5636
5663 5662 5660 5659 5658 5657 5656 5655 5653 5652 5650 5649 5648 5647 5647 5646 5645 5645 5644 5643 5640 5639 5639 5641 5641 5641 5640 5638 5636 5636 5636 5636 5637 5636 5634 5632 5632 5632
5656 5656 5655 5655 5653 5652 5650 5649 5647 5646 5644 5643 5641 5640 5638 5637 5637 5637 5636 5635 5634 5634 5633 5633 5633 5632 5631 5633 5633 5632 5631 5630 5631 5630 5629 5627 5626 5628
5651 5651 5651 5650 5649 5648 5646 5644 5641 5640 5638 5637 5635 5633 5631 5631 5630 5629 5628 5628 5627 5627 5628 5627 5626 5623 5621 5622 5626 5628 5626 5624 5624 5623 5623 5622 5622 5622
5649 5648 5646 5646 5644 5642 5641 5638 5636 5634 5632 5630 5628 5627 5625 5624 5623 5622 5622 5621 5620 5620 5620 5621 5620 5619 5617 5617 5618 5620 5620 5620 5618 5617 5617 5617 5616 5617
5645 5643 5642 5641 5639 5637 5635 5632 5630 5627 5626 5623 5622 5620 5619 5618 5617 5617 5617 5615 5614 5614 5614 5614 5616 5617 5616 5615 5613 5614 5615 5615 5615 5613 5613 5612 5611 5611
5639 5638 5636 5635 5632 5631 5628 5625 5623 5621 5619 5618 5617 5616 5614 5613 5612 5612 5611 5610 5609 5609 5610 5611 5612 5611 5611 5609 5608 5609 5609 5609 5609 5609 5609 5609 5608 5607
5633 5631 5630 5629 5627 5624 5621 5619 5617 5616 5614 5613 5611 5610 5609 5608 5607 5607 5606 5606 5605 5605 5604 5605 5606 5606 5606 5606 5605 5605 5604 5603 5603 5602 5602 5603 5604 5605